Home   Weather   Kaiserslautern   Past weeks

Flag for Germany Past Weather in Kaiserslautern, Rhineland-Palatinate, Germany — Yesterday and Last 2 Weeks

Now
58 °F

Passing clouds.


Feels Like: 58 °F
Forecast: 33 / 64 °F
Wind: No wind

Location: Ramstein

Current Time: Apr 29, 2017 at 8:09:41 pm

Latest Report: Apr 29, 2017 at 6:58 pm


Visibility: N/A

Pressure: 29.98 "Hg

Humidity: 32%

Dew Point: 29 °F

Location of KaiserslauternLocation

Past Weather in Kaiserslautern — Graph

°F

Kaiserslautern Temperature Yesterday

Maximum temperature yesterday: 54 °F (at 2:58 pm)
Minimum temperature yesterday: 27 °F (at 6:55 am)
Average temperature yesterday: 43 °F

High & Low Weather Summary for the Past Weeks

 TemperatureHumidityPressure
High64 °F (Apr 24, 5:58 pm)100% (Apr 15, 6:58 am)30.63 "Hg (Apr 15, 6:58 am)
Low18 °F (Apr 20, 5:58 am)26% (Apr 24, 5:58 pm)29.72 "Hg (Apr 25, 5:23 am)
Average44 °F67%30.14 "Hg
* Reported Apr 14 6:58 pm — Apr 29 6:58 pm, Kaiserslautern, Weather by CustomWeather, © 2017

Note: Actual official high and low records may vary slightly from our data, if they occured in-between our weather recording intervals... More about our weather records

Advertising

Kaiserslautern Weather History for the Previous 24 Hours

Scroll right to see more
 ConditionsComfort  
Time TempWeatherWind HumidityBarometerVisibility
6:58 pm
Sat, Apr 29
59 °FPassing clouds.No wind31%29.98 "HgN/A
5:58 pm59 °FPassing clouds.No wind33%30.00 "HgN/A
4:58 pm59 °FPassing clouds.No wind35%30.01 "HgN/A
3:58 pm57 °FScattered clouds.3 mph37%30.03 "HgN/A
2:58 pm56 °FScattered clouds.5 mph41%30.03 "HgN/A
1:58 pm55 °FScattered clouds.3 mph40%30.04 "HgN/A
12:58 pm52 °FBroken clouds.No wind51%30.06 "HgN/A
11:58 am54 °FPartly sunny.No wind47%30.07 "HgN/A
10:58 am50 °FPartly sunny.No wind64%30.09 "HgN/A
9:58 am47 °FPartly sunny.No wind77%30.08 "HgN/A
8:58 am45 °FScattered clouds.No wind87%30.08 "HgN/A
7:58 am38 °FFog.No wind99%30.09 "Hg6 mi
6:58 am36 °FOvercast.No wind98%30.08 "HgN/A
5:58 am35 °FPassing clouds.No wind99%30.07 "HgN/A
4:58 am37 °FOvercast.No wind100%30.07 "HgN/A
3:58 am37 °FPassing clouds.No wind100%30.06 "HgN/A
2:58 am41 °FMostly cloudy.3 mph99%30.05 "HgN/A
1:58 am42 °FPassing clouds.5 mph93%30.05 "HgN/A
12:58 am40 °FOvercast.No wind94%30.05 "HgN/A
11:58 pm
Fri, Apr 28
40 °FPassing clouds.No wind98%30.05 "HgN/A
10:58 pm40 °FPassing clouds.5 mph92%30.05 "HgN/A
9:58 pm45 °FPassing clouds.5 mph79%30.03 "HgN/A
9:24 pm46 °FPartly cloudy.9 mph76%30.00 "HgN/A
9:14 pm46 °FLight rain. Passing clouds.9 mph76%30.00 "Hg6 mi
9:03 pm46 °FLight rain. Overcast.12 mph71%30.00 "Hg6 mi
Weather by CustomWeather, © 2017

See weather overviewHow to use our weather pages